Location: �terpigny
(49.8910°N, 2.9249°E)
Time: 21:21:32
(UTC+00:00)

UWE-3 - Visible Passes

Search period start: 28 June 2022 00:00
Search period end: 08 July 2022 00:00
Orbit: 581 x 680 km, 97.7° (Epoch: 28 June)

Date Brightness Start Highest point End Pass type
(mag) Time Alt. Az. Time Alt. Az. Time Alt. Az.
28 Jun ? 02:47:58 10° NNE 02:51:58 37° E 02:56:03 10° SSE visible
30 Jun ? 01:54:33 10° ENE 01:56:12 12° E 01:57:51 10° ESE visible
01 Jul ? 02:13:53 10° NE 02:16:57 19° E 02:20:04 10° SE visible
02 Jul ? 02:33:52 10° NE 02:37:38 28° E 02:41:29 10° SSE visible
03 Jul ? 02:54:06 10° NNE 02:58:16 44° E 03:02:32 10° S visible
05 Jul ? 02:00:09 10° NE 02:02:32 14° E 02:04:56 10° ESE visible
06 Jul ? 02:19:49 10° NE 02:23:15 22° E 02:26:45 10° SE visible
07 Jul ? 02:39:54 10° NNE 02:43:55 33° E 02:48:00 10° SSE visible
